Time,TemperatureF,DewpointF,PressureIn,WindDirection,WindDirectionDegrees,WindSpeedMPH,WindSpeedGustMPH,Humidity,HourlyPrecipIn,Conditions,Clouds,dailyrainin,SoftwareType,DateUTC
2013-11-12 00:23:00,28.0,27.0,-100.00,North,0,4.0,12.0,98,5.67,,,-99.99,,2013-11-12 05:23:00,
2013-11-12 00:53:00,27.0,27.0,-100.00,North,0,4.0,13.0,98,5.67,,,-99.99,,2013-11-12 05:53:00,
2013-11-12 01:22:00,27.0,27.0,-100.00,NNW,330,11.0,14.0,98,0.00,,,-99.99,,2013-11-12 06:22:00,
2013-11-12 01:32:00,27.0,27.0,-100.00,NNW,330,11.0,14.0,98,0.00,,,-99.99,,2013-11-12 06:32:00,
2013-11-12 01:52:00,28.0,25.0,-100.00,NNW,330,11.0,15.0,90,0.00,,,-99.99,,2013-11-12 06:52:00,
2013-11-12 02:21:00,27.0,22.0,-100.00,NNW,340,12.0,16.0,82,0.00,,,-99.99,,2013-11-12 07:21:00,
2013-11-12 02:52:00,27.0,22.0,-100.00,NNW,335,12.0,17.0,80,0.00,,,-99.99,,2013-11-12 07:52:00,
2013-11-12 03:21:00,27.0,21.0,-100.00,NNW,335,12.0,18.0,78,0.00,,,-99.99,,2013-11-12 08:21:00,
2013-11-12 03:52:00,26.0,20.0,-100.00,NNW,335,11.0,16.0,78,0.00,,,-99.99,,2013-11-12 08:52:00,
2013-11-12 04:21:00,26.0,20.0,-100.00,NNW,340,11.0,16.0,78,0.00,,,-99.99,,2013-11-12 09:21:00,
2013-11-12 04:53:00,24.0,19.0,-100.00,NNW,335,9.0,11.0,81,0.00,,,-99.99,,2013-11-12 09:53:00,
2013-11-12 05:23:00,24.0,19.0,-100.00,NW,320,9.0,12.0,80,0.00,,,-99.99,,2013-11-12 10:23:00,
2013-11-12 05:53:00,23.0,18.0,-100.00,NNW,330,10.0,13.0,81,0.00,,,-99.99,,2013-11-12 10:53:00,
2013-11-12 06:22:00,22.0,18.0,-100.00,NW,325,7.0,10.0,83,0.00,,,-99.99,,2013-11-12 11:22:00,
2013-11-12 06:52:00,22.0,17.0,-100.00,NW,325,7.0,9.0,84,0.00,,,-99.99,,2013-11-12 11:52:00,
2013-11-12 07:22:00,21.0,17.0,-100.00,NW,315,7.0,9.0,85,0.00,,,-99.99,,2013-11-12 12:22:00,
2013-11-12 07:52:00,21.0,17.0,-100.00,NW,325,1.0,7.0,86,0.00,,,-99.99,,2013-11-12 12:52:00,
2013-11-12 08:22:00,21.0,17.0,-100.00,NW,325,4.0,6.0,85,0.00,,,-99.99,,2013-11-12 13:22:00,
2013-11-12 08:52:00,22.0,18.0,-100.00,NW,325,8.0,11.0,84,0.00,,,-99.99,,2013-11-12 13:52:00,
2013-11-12 09:22:00,24.0,19.0,-100.00,NW,320,8.0,9.0,83,0.00,,,-99.99,,2013-11-12 14:22:00,
2013-11-12 09:52:00,24.0,20.0,-100.00,NW,325,9.0,12.0,82,0.00,,,-99.99,,2013-11-12 14:52:00,
2013-11-12 10:22:00,26.0,20.0,-100.00,NNW,340,10.0,15.0,78,0.00,,,-99.99,,2013-11-12 15:22:00,
2013-11-12 10:53:00,26.0,19.0,-100.00,North,0,11.0,16.0,74,0.00,,,-99.99,,2013-11-12 15:53:00,
2013-11-12 11:23:00,27.0,21.0,-100.00,North,0,6.0,10.0,75,0.00,,,-99.99,,2013-11-12 16:23:00,
2013-11-12 11:52:00,27.0,20.0,-100.00,NNW,335,7.0,11.0,74,0.00,,,-99.99,,2013-11-12 16:52:00,
2013-11-12 12:23:00,28.0,22.0,-100.00,NW,315,9.0,15.0,76,0.00,,,-99.99,,2013-11-12 17:23:00,
2013-11-12 12:52:00,28.0,21.0,-100.00,NW,320,11.0,17.0,72,0.00,,,-99.99,,2013-11-12 17:52:00,
2013-11-12 13:23:00,30.0,20.0,-100.00,NNW,335,7.0,14.0,67,0.00,,,-99.99,,2013-11-12 18:23:00,
2013-11-12 13:52:00,31.0,21.0,-100.00,NW,310,11.0,14.0,68,0.00,,,-99.99,,2013-11-12 18:52:00,
2013-11-12 14:22:00,31.0,21.0,-100.00,NW,325,10.0,17.0,65,0.00,,,-99.99,,2013-11-12 19:22:00,
2013-11-12 14:52:00,31.0,22.0,-100.00,NW,310,11.0,14.0,69,0.00,,,-99.99,,2013-11-12 19:52:00,
2013-11-12 15:22:00,31.0,22.0,-100.00,NW,320,11.0,16.0,66,0.00,,,-99.99,,2013-11-12 20:22:00,
2013-11-12 15:52:00,31.0,21.0,-100.00,NW,305,7.0,12.0,64,0.00,,,-99.99,,2013-11-12 20:52:00,
2013-11-12 16:22:00,31.0,22.0,-100.00,WNW,295,6.0,11.0,69,0.00,,,-99.99,,2013-11-12 21:22:00,
2013-11-12 16:54:00,31.0,23.0,-100.00,WNW,295,4.0,11.0,73,0.00,,,-99.99,,2013-11-12 21:54:00,
2013-11-12 17:24:00,31.0,23.0,-100.00,WNW,285,6.0,9.0,74,0.00,,,-99.99,,2013-11-12 22:24:00,
2013-11-12 17:54:00,30.0,24.0,-100.00,West,270,4.0,7.0,77,0.00,,,-99.99,,2013-11-12 22:54:00,
2013-11-12 18:23:00,30.0,24.0,-100.00,West,265,4.0,7.0,77,0.00,,,-99.99,,2013-11-12 23:23:00,
2013-11-12 18:53:00,30.0,24.0,-100.00,WNW,290,4.0,8.0,78,0.00,,,-99.99,,2013-11-12 23:53:00,
2013-11-12 19:22:00,30.0,24.0,-100.00,WNW,300,4.0,8.0,78,0.00,,,-99.99,,2013-11-13 00:22:00,
2013-11-12 19:52:00,29.0,22.0,-100.00,NW,305,4.0,7.0,76,0.00,,,-99.99,,2013-11-13 00:52:00,
2013-11-12 20:22:00,29.0,23.0,-100.00,NW,310,4.0,6.0,78,0.00,,,-99.99,,2013-11-13 01:22:00,
2013-11-12 20:52:00,29.0,23.0,-100.00,WNW,300,6.0,11.0,78,0.00,,,-99.99,,2013-11-13 01:52:00,
2013-11-12 21:22:00,28.0,23.0,-100.00,WNW,300,6.0,12.0,80,0.00,,,-99.99,,2013-11-13 02:22:00,
2013-11-12 21:52:00,28.0,22.0,-100.00,NW,305,6.0,11.0,78,0.00,,,-99.99,,2013-11-13 02:52:00,
2013-11-12 22:22:00,27.0,23.0,-100.00,West,275,6.0,9.0,86,0.00,,,-99.99,,2013-11-13 03:22:00,
2013-11-12 22:54:00,26.0,22.0,-100.00,WNW,290,6.0,9.0,85,0.00,,,-99.99,,2013-11-13 03:54:00,
2013-11-12 23:23:00,26.0,22.0,-100.00,West,280,7.0,10.0,86,0.00,,,-99.99,,2013-11-13 04:23:00,
2013-11-12 23:53:00,26.0,22.0,-100.00,West,260,4.0,8.0,85,0.00,,,-99.99,,2013-11-13 04:53:00,